Zurück zum Katalog

ARIANE 5 R/B

AktivGTO
NORAD 46116·ROCKET BODY·🇫🇷 France

Gestartet Aug 15, 2020 von Guiana Space Centre

Loading…

TLE

AlterndSource: Space-Track

Epoche: Sep 14, 2026, 13:58 UTC

1 46116U 20056E   26257.58216130  .00003691  00000-0  12831-2 0  9995
2 46116   5.7734 267.1929 7175847 239.1499  31.8896  2.40732188 51936

Verfolge ARIANE 5 R/B in Echtzeit mit AllMySat

Download on the App Store